Regional Weather Roundup
Issued by NWS

Home | Current Version | Previous Version | Text Only | Print | Product List | Glossary On
Versions: 1 2 3 4 5 6 7 8 9 10 11 12 13 14 15 16 17 18 19 20 21 22 23 24 25 26 27 28 29 30 31 32 33 34 35 36 37 38 39 40 41 42 43 44 45 46 47 48 49 50
000
ASCA44 KEWX 171920
RWRMX

LATIN AMERICA AND CARIBBEAN REGIONAL WEATHER ROUNDUP
NATIONAL WEATHER SERVICE AUSTIN/SAN ANTONIO TX
200 PM CDT WED SEP 17 2014

NOTE: "FAIR" INDICATED FEW OR NO CLOUDS BELOW 12,000 FEET WITH NO
SIGNIFICANT WEATHER AND/OR OBSTRUCTIONS TO VISIBILITY.

BAJA CALIFORNIA

CITY           SKY/WX    TMP DP  RH WIND       PRES   REMARKS
LORETO           N/A    N/A N/A N/A MISG        N/A
LA PAZ         PTSUNNY   86  70  58 SW7       29.87  HX  90
MEXICALI       PTSUNNY   95  64  36 E6        29.75  HX  97
S.J. DEL CABO    N/A    N/A N/A N/A MISG        N/A
TIJUANA        MOSUNNY   95  59  30 W13       29.77S HX  94

NORTHWESTERN MEXICO

CITY           SKY/WX    TMP DP  RH WIND       PRES   REMARKS
CULIACAN       PTSUNNY   91  77  62 CALM      29.84  HX 105
DURANGO        MOSUNNY   75  54  46 N6        30.20F
GUAYMAS        PTSUNNY   86  75  70 S10       29.76  HX  95
HERMOSILLO     LGT RAIN  81  73  78 S8G20     29.79
CD. JUAREZ     PTSUNNY   79  66  65 E8        30.01
LOS MOCHIS     PTSUNNY   84  73  70 SW12      29.85F HX  91
OBREGON        PTSUNNY   88  73  62 S10       29.80  HX  96

NORTHEASTERN MEXICO

CITY           SKY/WX    TMP DP  RH WIND       PRES   REMARKS
CHIHUAHUA      PTSUNNY   82  59  44 SE10      30.07
MATAMOROS      CLOUDY    90  77  66 S14       29.95  HX 102
MONCLOVA       PTSUNNY   86  70  58 CALM      29.95S HX  90
MONTERREY      PTSUNNY   84  68  58 S6        29.92F
NUEVO LAREDO   PTSUNNY   91  72  52 S7        29.90  HX  98
PIEDRAS NEGRAS PTSUNNY   86  75  70 SE7       29.94F HX  95
REYNOSA        MOSUNNY   86  72  62 S9        29.90  HX  92
SALTILLO       MOSUNNY   84  61  45 N7        30.13F
TORREON        MOSUNNY   88  57  35 SW7       30.03F
CD. VICTORIA   MOSUNNY   88  68  51 S6G17     29.90  HX  91

WESTERN MEXICO

CITY           SKY/WX    TMP DP  RH WIND       PRES   REMARKS
AGUASCALIENTES PTSUNNY   72  52  49 S6        30.24
COLIMA         CLOUDY    75  68  78 CALM      29.98
DEL BAJIO      PTSUNNY   75  57  53 E15       30.25F
GUADALAJARA    PTSUNNY   77  59  53 CALM      30.14
MANZANILLO     PTSUNNY   90  77  66 SW9       29.83F HX 102
MAZATLAN       PTSUNNY   82  75  78 SW12      29.82F
P. VALLARTA    PTSUNNY   88  77  70 S9        29.86F HX 100
URUAPAN        CLOUDY    70  64  83 S9        30.18F
ZACATECAS        N/A    N/A N/A N/A MISG        N/A

CENTRAL MEXICO

CITY           SKY/WX    TMP DP  RH WIND       PRES   REMARKS
CUERNAVACA     PTSUNNY   81  59  47 CALM      30.14R
MEXICO CITY    PTSUNNY   72  48  43 SE17      30.31F
MORELIA        PTSUNNY   75  59  57 S9        30.20
POZA RICA      PTSUNNY   90  79  70 NE7       29.94F HX 105
PUEBLA         PTSUNNY   79  59  50 S13       30.35F
QUERETARO      PTSUNNY   73  55  53 E3        30.26F
S. LUIS POTOSI PTSUNNY   73  55  53 N8        30.21F
TAMPICO        PTSUNNY   82  75  78 NW7       29.91F
TOLUCA         PTSUNNY   64  45  48 S16       30.40F

SOUTHERN MEXICO

CITY           SKY/WX    TMP DP  RH WIND       PRES   REMARKS
ACAPULCO       LGT RAIN  77  75  94 NE10      29.93F
B. DE HUATULCO PTSUNNY   86  75  70 CALM      29.97  HX  95
OAXACA         MOSUNNY   77  55  47 E6        30.20F
P. ESCONDIDO   PTSUNNY   82  75  78 S16       30.07F
VERACRUZ       PTSUNNY   86  73  66 N7        29.90F HX  93
ZIHUATANEJO    CLOUDY    81  75  83 E9        29.85F

YUCATAN PENINSULA

CITY           SKY/WX    TMP DP  RH WIND       PRES   REMARKS
CAMPECHE       MOSUNNY   86  79  79 NW12      29.89F HX  99
CANCUN         MOSUNNY   90  75  62 SE8       29.93F HX 100
CHETUMAL       MOSUNNY   88  81  79 E6        29.90F HX 105
CD. DEL CARMEN MOSUNNY   86  75  70 N8        29.90  HX  95
COZUMEL        PTSUNNY   82  77  83 SW8       29.93F HX  91
MERIDA         PTSUNNY   91  72  52 SE12      29.91F HX  98
MINATITLAN     PTSUNNY   88  75  66 CALM      29.88  HX  97
TAPACHULA      MOSUNNY   90  77  66 NW12      29.90F HX 102
TUX. GUTIERREZ MOSUNNY   86  70  58 NW5       29.96F HX  90
VILLAHERMOSA   CLOUDY    88  75  66 CALM      29.91F HX  97

CENTRAL AMERICA

CITY           SKY/WX    TMP DP  RH WIND       PRES   REMARKS
BELIZE CITY    PTSUNNY   88  79  74 E8          N/A  HX 102
MANAGUA        PTCLDY    90  75  62 E7        29.83F HX 100

CARIBBEAN

CITY           SKY/WX    TMP DP  RH WIND       PRES   REMARKS
ARUBA          PTSUNNY   88  77  70 E17       29.83S HX 100
KINGSTON       MOSUNNY   86  77  74 SE17      29.89S THUNDER HX  97
NASSAU         MOSUNNY   86  73  66 NE6       29.93F HX  93
SAN JUAN       MOSUNNY   86  75  70 NE12      29.93F HX  95
SANTO DOMINGO  MOSUNNY   88  75  66 S9        29.89F HX  97
ST. CROIX      MOSUNNY   86  75  70 E10       29.93F HX  95
ST. KITTS      MOSUNNY   88  75  66 NE13      29.92F HX  97
ST. MAARTEN    MOSUNNY   88  73  62 E12       29.92F HX  96

$$




USA.gov is the U.S. government's official web portal to all federal, state and local government web resources and services.